{"data":{"norad_id":53232,"epoch":"2026-09-19T09:29:33.567360Z","epoch_age_seconds":170711,"freshness":"FRESH","line1":"1 53232U 22084AV  26262.39552740  .00000708  00000+0  24276-4 0  9993","line2":"2 53232  97.2833 317.1807 0001407  94.8045 265.3358 15.33435044228521","mean_motion":15.33435044,"eccentricity":0.0001407,"inclination_deg":97.2833,"raan_deg":317.1807,"arg_perigee_deg":94.8045,"mean_anomaly_deg":265.3358,"bstar":2.4276e-5,"rev_number":22852,"period_min":93.906814353461,"perigee_km":464.60988672137,"apogee_km":466.53570665815,"semimajor_km":6843.7097966898,"source":"CELESTRAK","updated_at":"2026-09-20T09:00:40.196923Z"}}